Zurück zum Katalog

NULINK-2

AktivKommunikationSSO
NORAD 68994·PAYLOAD·🇺🇸 United States

Gestartet May 3, 2026 von Vandenberg Space Force Base

Loading…

Nächste Überflüge (nächste 24 Stunden)

TLE

AktuellSource: Space-Track

Epoche: Sep 13, 2026, 16:10 UTC

1 68994U 26100Q   26256.67398370  .00000912  00000-0  93711-4 0  9996
2 68994  97.7207 152.5494 0002310  59.3491 300.7956 14.92752735 19901

Verfolge NULINK-2 in Echtzeit mit AllMySat

Download on the App Store